Weather History for Gastonia, NC

Change the Weather History Date:

Sunday, October 28, 2012

  Actual Average (KCLT) Record (KCLT)
Temperature  
Mean Temperature 61 °F 56 °F  
Max Temperature 71 °F 68 °F 87 °F (1940)
Min Temperature 51 °F 45 °F 26 °F (2001)
Degree Days  
Heating Degree Days 4 9  
Month to date heating degree days 156  
Since 1 July heating degree days 179  
Cooling Degree Days 0 0  
Month to date cooling degree days 39  
Year to date cooling degree days 1514  
Growing Degree Days 11 (Base 50)    
Moisture  
Dew Point 46 °F    
Average Humidity 62    
Maximum Humidity 77    
Minimum Humidity 44    
Precipitation  
Precipitation 0.00 in 0.10 in 1.23 in (1973)
Month to date precipitation 3.10  
Year to date precipitation 34.94  
Snow  
Snow 0.00 in 0.00 in 0.00 in ()
Month to date snowfall 0.0  
Since 1 July snowfall 0.0  
Since 1 September snowfall 0.0  
Snow Depth -    
Sea Level Pressure  
Sea Level Pressure 29.69 in    
Wind  
Wind Speed 8 mph (North)    
Max Wind Speed 14 mph    
Max Gust Speed 21 mph    
Visibility 10 miles    
Events Rain    
T = Trace of Precipitation, MM = Missing Value Source: NWS Daily Summary

Daily Weather History Graph

Daily Weather History Graph

Search for Another Location

Airport:

Trip Planner

Search our weather history database for the weather conditions in past years. The results will help you decide how hot, cold, wet, or windy it might be!

Date:

Astronomy

Oct. 28, 2012 Rise Set
Actual Time 7:42 AM EDT 6:33 PM EDT
Civil Twilight 7:16 AM EDT 6:59 PM EDT
Nautical Twilight 6:46 AM EDT 7:29 PM EDT
Astronomical Twilight 6:17 AM EDT 7:59 PM EDT
Moon 5:50 PM EDT (10/28) 6:35 AM EDT (10/28)
Length of Visible Light 11h 43m
Length of Day
10h 50m
Waxing Gibbous, 99% of the Moon is Illuminated
Oct 28
Waxing Gibbous
Oct 29
Full
Nov 6
Last Quarter
Nov 13
New
Nov 20
First Quarter

Hourly Weather History & Observations

Time (EDT) Temp. Dew Point Humidity Pressure Visibility Wind Dir Wind Speed Gust Speed Precip Events Conditions
12:54 AM 62.1 °F 52.0 °F 70% 29.75 in 10.0 mi North 8.1 mph 17.3 mph N/A   Clear
1:54 AM 60.1 °F 51.1 °F 72% 29.73 in 10.0 mi North 8.1 mph - N/A   Clear
2:54 AM 60.1 °F 50.0 °F 69% 29.72 in 10.0 mi North 9.2 mph 19.6 mph N/A   Clear
3:54 AM 59.0 °F 48.9 °F 69% 29.71 in 10.0 mi North 6.9 mph - N/A   Clear
4:54 AM 57.0 °F 48.9 °F 74% 29.70 in 10.0 mi North 6.9 mph - N/A   Clear
5:54 AM 57.0 °F 48.9 °F 74% 29.72 in 10.0 mi North 6.9 mph - N/A   Clear
6:54 AM 55.9 °F 48.9 °F 77% 29.70 in 10.0 mi North 5.8 mph - N/A   Clear
7:54 AM 55.0 °F 48.0 °F 77% 29.71 in 10.0 mi North 6.9 mph - N/A   Clear
8:54 AM 55.9 °F 48.0 °F 75% 29.72 in 10.0 mi Variable 6.9 mph - N/A   Clear
9:54 AM 59.0 °F 48.0 °F 67% 29.71 in 10.0 mi North 11.5 mph 19.6 mph N/A   Clear
10:54 AM 62.1 °F 48.9 °F 62% 29.70 in 10.0 mi North 8.1 mph 17.3 mph N/A   Clear
11:54 AM 64.0 °F 48.0 °F 56% 29.69 in 10.0 mi NNE 8.1 mph 18.4 mph N/A   Clear
1:54 PM 66.9 °F 46.9 °F 49% 29.66 in 10.0 mi Variable 5.8 mph - N/A   Mostly Cloudy
2:54 PM 70.0 °F 48.0 °F 46% 29.63 in 10.0 mi NE 9.2 mph - N/A   Clear
3:54 PM 70.0 °F 46.9 °F 44% 29.62 in 10.0 mi NNE 9.2 mph - N/A   Clear
4:54 PM 66.9 °F 46.9 °F 49% 29.63 in 10.0 mi North 5.8 mph - N/A   Overcast
5:54 PM 64.0 °F 46.9 °F 54% 29.64 in 10.0 mi NNW 8.1 mph - N/A   Overcast
6:54 PM 60.1 °F 43.0 °F 53% 29.66 in 10.0 mi NW 8.1 mph 16.1 mph N/A   Overcast
7:54 PM 55.0 °F 44.1 °F 67% 29.69 in 10.0 mi Variable 3.5 mph - 0.00 in Rain Light Rain
8:54 PM 54.0 °F 42.1 °F 64% 29.70 in 10.0 mi Variable 6.9 mph - 0.00 in   Overcast
9:54 PM 53.1 °F 39.0 °F 59% 29.70 in 10.0 mi North 13.8 mph 20.7 mph N/A   Overcast
10:54 PM 52.0 °F 36.0 °F 54% 29.70 in 10.0 mi NNW 8.1 mph 18.4 mph 0.00 in   Overcast
11:54 PM 51.1 °F 35.1 °F 54% 29.70 in 10.0 mi NNW 8.1 mph - N/A   Overcast